Flag Weather past 2 weeks in Kenora, Ontario, Canada

Now
32 °F

Mostly cloudy.


Feels Like: 24 °F
Forecast: 22 / 33 °F
Wind: 10 mph from Southeast

Location: Kenora

Current Time: Nov 23, 2014 at 12:12:01 AM

Latest Report: Nov 22, 2014 at 11:00 PM


Visibility: 12 mi

Pressure: 29.47 "Hg

Humidity: 93%

Dew point: 30 °F

Location of KenoraLocation

Historic Weather in Kenora — Graph

°F

Kenora temperature yesterday

Maximum temperature yesterday: 32 °F (at 8:00 PM)
Minimum temperature yesterday: 27 °F (at 12:00 AM)
Average temperature yesterday: 29 °F

Past Weeks' High & Low Weather Summary

 TemperatureHumidityPressure
High32 °F (Nov 7, 11:00 PM)93% (Nov 7, 11:00 PM)30.40 "Hg (Nov 7, 11:00 PM)
Low-4 °F (Nov 20, 7:00 AM)33% (Nov 8, 4:00 PM)29.47 "Hg (Nov 22, 11:00 PM)
Average15 °F77%30.00 "Hg
* Reported Nov 7 11:00 PM — Nov 22 11:00 PM, Kenora, Weather by CustomWeather, © 2014

Note: Actual official high and low records may vary slightly from our data, if they occured in-between our weather recording intervals... More about our weather records

Advertising

Kenora weather history for previous 24 hours

 ConditionsComfort  
Time TempWeatherWind HumidityBarometerVisibility
11:00 PM
Nov 22
32 °FMostly cloudy.10 mph93%29.47 "Hg12 mi
10:00 PM32 °FMostly cloudy.10 mph93%29.48 "Hg12 mi
9:00 PM32 °FLow clouds.9 mph93%29.51 "Hg12 mi
8:00 PM32 °FLight snow. Low clouds.13 mph87%29.54 "Hg12 mi
7:00 PM30 °FLight snow. Low clouds.8 mph93%29.57 "Hg10 mi
6:00 PM30 °FLight snow. Low clouds.7 mph86%29.58 "Hg12 mi
5:00 PM30 °FLight snow. Overcast.7 mph86%29.58 "Hg10 mi
4:00 PM30 °FLight snow. Overcast.7 mph86%29.59 "Hg10 mi
3:00 PM30 °FLight snow. Overcast.5 mph80%29.60 "Hg12 mi
2:47 PM30 °FLight snow. More clouds than sun.3 mph80%29.61 "Hg10 mi
2:00 PM30 °FLight snow. Mostly cloudy.5 mph80%29.62 "Hg10 mi
1:00 PM28 °FLight snow. Mostly cloudy.No wind86%29.63 "Hg10 mi
12:00 PM28 °FLight snow. Low clouds.No wind86%29.65 "Hg10 mi
11:00 AM27 °FLight snow. Low clouds.2 mph93%29.66 "Hg8 mi
10:00 AM27 °FLight snow. Mostly cloudy.No wind93%29.65 "Hg10 mi
9:00 AM27 °FMostly cloudy.2 mph93%29.65 "Hg10 mi
8:00 AM27 °FLight snow. Low clouds.2 mph93%29.66 "Hg10 mi
7:00 AM27 °FLight snow. Low clouds.2 mph93%29.65 "Hg10 mi
6:00 AM27 °FLow clouds.7 mph93%29.64 "Hg10 mi
5:47 AM27 °FLow clouds.5 mph93%29.64 "Hg10 mi
5:00 AM28 °FOvercast.7 mph86%29.62 "Hg10 mi
4:00 AM28 °FPassing clouds.8 mph86%29.61 "Hg10 mi
3:00 AM28 °FMostly cloudy.6 mph86%29.60 "Hg10 mi
2:00 AM27 °FMostly cloudy.7 mph93%29.59 "Hg10 mi
1:00 AM27 °FPassing clouds.10 mph93%29.58 "Hg10 mi
12:00 AM27 °FPartly cloudy.10 mph86%29.57 "Hg15 mi
Weather by CustomWeather, © 2014

See weather overviewHow to use our weather pages